SBI5504 UAAA-UNNT

Flight info

Callsign SBI5504
Flight time N/A
Altitude 35000
Route GOGDO P984 GENGA L143 ELSUT G121 RUBID G831 ORPAS
Aircraft E170/M-SDE2E3FGHIRWXY/LB1

Departure

Time 2026-04-25 12:11
Airport Almaty International Airport (UAAA)

Arrival

Time N/A
Airport Novosibirsk Tolmachevo Airport (UNNT)
Time Latitude Longitude Altitude Speed Heading
2026-04-25 12:00 43.34797 77.01992 2226 ft 8 kts 94°
2026-04-25 12:01 43.34780 77.02360 2226 ft 10 kts 93°
2026-04-25 12:01 43.34774 77.02458 2227 ft 11 kts 95°
2026-04-25 12:01 43.34767 77.02563 2225 ft 12 kts 91°
2026-04-25 12:02 43.34787 77.02628 2224 ft 2 kts 80°
2026-04-25 12:02 43.34784 77.02696 2224 ft 13 kts 94°
2026-04-25 12:02 43.34785 77.02839 2225 ft 16 kts 84°
2026-04-25 12:03 43.34790 77.02986 2224 ft 15 kts 70°
2026-04-25 12:03 43.34820 77.03121 2224 ft 15 kts 70°
2026-04-25 12:03 43.34870 77.03251 2226 ft 16 kts 57°
2026-04-25 12:03 43.34930 77.03371 2227 ft 15 kts 58°
2026-04-25 12:04 43.34987 77.03496 2223 ft 16 kts 56°
2026-04-25 12:04 43.35053 77.03621 2226 ft 16 kts 55°
2026-04-25 12:04 43.35125 77.03754 2226 ft 20 kts 51°
2026-04-25 12:04 43.35237 77.03900 2224 ft 24 kts 36°
2026-04-25 12:05 43.35373 77.03997 2221 ft 22 kts 27°
2026-04-25 12:05 43.35499 77.04115 2224 ft 22 kts 44°
2026-04-25 12:05 43.35602 77.04269 2224 ft 22 kts 51°
2026-04-25 12:05 43.35688 77.04435 2223 ft 22 kts 55°
2026-04-25 12:06 43.35774 77.04611 2223 ft 22 kts 56°
2026-04-25 12:06 43.35802 77.04668 2225 ft 22 kts 56°
2026-04-25 12:06 43.35932 77.04936 2224 ft 0 kts 57°
2026-04-25 12:06 43.35938 77.04948 2222 ft 5 kts 57°
2026-04-25 12:07 43.35969 77.05016 2223 ft 12 kts 65°
2026-04-25 12:07 43.35930 77.05121 2221 ft 15 kts 145°
2026-04-25 12:07 43.35882 77.05167 2225 ft 7 kts 145°
2026-04-25 12:07 43.35842 77.05189 2224 ft 6 kts 195°
2026-04-25 12:08 43.35816 77.05157 2227 ft 5 kts 235°
2026-04-25 12:08 43.35813 77.05153 2227 ft 0 kts 235°
2026-04-25 12:09 43.35803 77.05132 2225 ft 9 kts 237°
2026-04-25 12:10 43.35100 77.03714 2229 ft 157 kts 237°
2026-04-25 12:10 43.34471 77.02460 2629 ft 180 kts 237°
2026-04-25 12:11 43.32257 76.97848 5257 ft 198 kts 240°
2026-04-25 12:11 43.31716 76.95935 5691 ft 232 kts 262°
2026-04-25 12:11 43.31811 76.93639 6392 ft 254 kts 286°
2026-04-25 12:12 43.32015 76.92857 6645 ft 261 kts 294°
2026-04-25 12:12 43.35140 76.88967 8739 ft 280 kts 327°
2026-04-25 12:12 43.37408 76.87105 9863 ft 292 kts 327°
2026-04-25 12:13 43.39169 76.85730 10032 ft 292 kts 329°
2026-04-25 12:13 43.40971 76.84437 10277 ft 290 kts 331°